This demonstration page uses our WeatherBlox Daily Observations layout. Learn more.

Left ArrowRight Arrow

36.19886, -115.1175

Hourly Observations for August 27, 2017

Temp ( °F °C ) Dew Point ( °F °C ) Humidity (%) Winds ( mph kmh ) Pressure ( in mb ) Visibility ( mi km ) Precip ( " mm )
12:53 am 00:53 Clear 88 31.1 49 9.4 26 26 NW 3 6 29.90 1013 10 16 N/A
1:53 am 01:53 Clear 88 31.1 48 8.9 25 25 W 3 6 29.89 1012 10 16 N/A
2:53 am 02:53 Clear 85 29.4 48 8.9 28 28 N N/A 29.90 1012 10 16 N/A
3:53 am 03:53 Clear 86 30 45 7.2 24 24 WNW 5 7 29.90 1013 10 16 N/A
4:53 am 04:53 Clear 85 29.4 45 7.2 25 25 WNW 5 7 29.91 1013 10 16 N/A
5:53 am 05:53 Clear 84 28.9 44 6.7 25 25 WNW 10 17 29.92 1013 10 16 N/A
6:53 am 06:53 Sunny 86 30 43 6.1 22 22 NNW 8 13 29.95 1014 10 16 N/A
7:53 am 07:53 Sunny 88 31.1 41 5 19 19 NNW 8 13 29.97 1015 10 16 N/A
8:53 am 08:53 Sunny 88 31.1 45 7.2 22 22 NW 12 19 29.96 1015 10 16 N/A
9:53 am 09:53 Sunny 96 35.6 42 5.6 15 15 WNW 6 9 29.96 1015 10 16 N/A
10:53 am 10:53 Sunny 100 37.8 40 4.4 13 13 VRB 3 6 29.95 1014 10 16 N/A
11:53 am 11:53 Sunny 103 39.4 38 3.3 11 11 E 6 9 29.93 1014 10 16 N/A
12:53 pm 12:53 Sunny 105 40.6 37 2.8 10 10 SE 7 11 29.90 1013 10 16 N/A
1:53 pm 13:53 Sunny 106 41.1 36 2.2 9 9 N N/A 29.88 1012 10 16 N/A
2:53 pm 14:53 Sunny 107 41.7 35 1.7 8 8 VRB 6 9 29.85 1011 10 16 N/A
3:53 pm 15:53 Sunny 109 42.8 35 1.7 8 8 VRB 3 6 29.82 1010 10 16 N/A
4:53 pm 16:53 Sunny 108 42.2 33 0.6 7 7 S 6 9 29.81 1010 10 16 N/A
5:53 pm 17:53 Sunny 108 42.2 32 undefined 7 7 NNW 8 13 29.80 1009 10 16 N/A
6:53 pm 18:53 Sunny 105 40.6 37 2.8 10 10 W 6 9 29.81 1009 10 16 N/A
7:53 pm 19:53 Clear 103 39.4 38 3.3 11 11 WNW 9 15 29.82 1010 10 16 N/A
8:53 pm 20:53 Clear 100 37.8 40 4.4 13 13 WNW 5 7 29.84 1010 10 16 N/A
9:53 pm 21:53 Clear 97 36.1 42 5.6 15 15 N 6 9 29.84 1010 10 16 N/A
10:53 pm 22:53 Clear 96 35.6 39 3.9 14 14 N 10 17 29.83 1010 10 16 N/A
11:53 pm 23:53 Clear 95 35 38 3.3 14 14 NNW 9 15 29.83 1010 10 16 N/A

Powered by AerisWeather